Regional Weather Roundup
Issued by NWS

Home | Current Version | Previous Version | Text Only | Print | Product List | Glossary On
Versions: 1 2 3 4 5 6 7 8 9 10 11 12 13 14 15 16 17 18 19 20 21 22 23 24 25 26 27 28 29 30 31 32 33 34 35 36 37 38 39 40 41 42 43 44 45 46 47 48 49 50
000
ASUS46 KLOX 010413
RWRCA

SOUTHERN CALIFORNIA WEATHER ROUNDUP
NATIONAL WEATHER SERVICE OXNARD CALIFORNIA
900 PM PDT FRI JUL 31 2015

NOTE: "FAIR" INDICATES FEW OR NO CLOUDS BELOW 12,000 FEET WITH NO
SIGNIFICANT WEATHER AND/OR OBSTRUCTIONS TO VISIBILITY.

  -  STATIONS PRECEEDED BY AN ASTERISK (*) ARE NOT NWS OR FAA
     STATIONS AND ARE NOT SUBJECT TO NWS AND FAA QUALITY CONTROL.

CAZ041-042-087-010500-
LA AND ORANGE COUNTY COASTAL AREAS


CITY           SKY/WX    TMP DP  RH WIND       PRES   REMARKS
L.A. DOWNTOWN  MOCLDY    71  66  84 W6        29.96R
L.A. AIRPORT   CLOUDY    69  66  90 W12       29.97R
LONG BEACH     CLEAR     73  66  78 NW9       29.96R

CITY           SKY/WX    TMP DP  RH WIND       PRES   REMARKS
AVALON           N/A     70 N/A N/A S2          N/A
FULLERTON      PTCLDY    76  66  71 W6        29.94R
*GETTY CENTER    N/A     64  63  94 SW1         N/A
HAWTHORNE      CLOUDY    72  66  81 W7        29.97R
*LOS ALAMITOS  PTCLDY    73  67  80 W7        29.96R
*REDONDO BEACH   N/A     71  65  83 CALM      29.97R
SANTA ANA      MOCLDY    72  65  78 SW5       29.96R
STA MONICA APT MOCLDY    69  65  86 SW6       29.97R
*UCLA            N/A     68  63  83 CALM      29.94S

$$

CAZ547-548-048-010500-
LA COUNTY VALLEYS AND INLAND EMPIRE


CITY           SKY/WX    TMP DP  RH WIND       PRES   REMARKS
BURBANK        CLEAR     76  63  64 SE9       29.96R
VAN NUYS       CLEAR     80  60  50 E6        29.96R

CITY           SKY/WX    TMP DP  RH WIND       PRES   REMARKS
CORONA AIRPORT PTCLDY    78  65  64 W9        29.96R
CHINO          FAIR      80  65  59 W12       29.97R
MARCH AFB      CLOUDY    80  62  53 NW3       29.99R
*NORTHRIDGE      N/A     81  54  39 E2          N/A
ONTARIO        MOCLDY    82  62  50 W12       29.96R
*PASADENA        N/A     73  66  78 CALM        N/A
POMONA         CLEAR     77  59  53 W10       30.00R
RIVERSIDE      MOCLDY    81  64  56 W9        29.96R
SAN BERNARDINO CLEAR     82  59  44 SW8       29.98
*WHITEMAN AP   NOT AVBL
*WOODLAND HILL   N/A    N/A N/A N/A SW3         N/A

$$

CAZ054-055-010500-
LA AND SAN BERNARDINO COUNTY MOUNTAINS


CITY           SKY/WX    TMP DP  RH WIND       PRES   REMARKS
*BIG BEAR AIRP CLOUDY    61  54  77 CALM      30.34S
SANDBERG       PTCLDY    73  55  53 S9        30.20R

$$

CAZ028-029-059-060-099-010500-
ANTELOPE VALLEY AND SURROUNDING AREAS


CITY           SKY/WX    TMP DP  RH WIND       PRES   REMARKS
LANCASTER      PTCLDY    84  55  36 SW13      30.01R
PALMDALE       PTCLDY    82  53  36 W10       30.02R

CITY           SKY/WX    TMP DP  RH WIND       PRES   REMARKS
29 PALMS       MOCLDY    91  58  32 SW14      30.01R HX  90
BARSTOW/DAGGET MOCLDY    91  57  31 NW9       29.94R
BISHOP         MOCLDY    79  51  37 W7        30.10S
CHINA LAKE     MOCLDY    91  56  30 S7        29.96R
EDWARDS AFB    MOCLDY    85  57  37 SW17      29.98R
MOJAVE         CLEAR     86  54  32 SW15      30.02R
NEEDLES        MOCLDY   100  57  23 W8        29.85R HX  99
VICTORVILLE    CLOUDY    82  54  36 SW6G14    30.05R

$$

CAZ039-040-010500-
VENTURA AND SANTA BARBARA COUNTY COAST


CITY           SKY/WX    TMP DP  RH WIND       PRES   REMARKS
CAMARILLO      CLOUDY    70  63  78 CALM      29.97R
OXNARD AIRPORT CLOUDY    68  63  84 W13       29.97R
*POINT MUGU    MOCLDY    70  64  81 NW7       29.97R
SBA APT/GOLETA CLEAR     67  62  84 S5        29.94S
*SANTA BARBARA   N/A     71  62  74 CALM      30.02S
*VENTURA         N/A     69  63  82 CALM      29.59R

$$

CAZ044-045-010500-
VENTURA COUNTY VALLEYS


CITY           SKY/WX    TMP DP  RH WIND       PRES   REMARKS
*SIMI VALLEY     N/A     71  65  79 CALM      29.92R
*OJAI            N/A     72  63  72 CALM      29.89R
*FILLMORE        N/A     72  64  75 CALM      29.87R

$$

CAZ053-010500-
VENTURA COUNTY MOUNTAINS


CITY           SKY/WX    TMP DP  RH WIND       PRES   REMARKS

$$

CAZ034-035-036-010500-
CENTRAL COAST AND SANTA YNEZ VALLEY


CITY           SKY/WX    TMP DP  RH WIND       PRES   REMARKS
SAN LUIS OBISP PTCLDY    64  60  87 NW9       29.99R
SANTA MARIA    CLOUDY    64  61  90 NW3       30.00S

CITY           SKY/WX    TMP DP  RH WIND       PRES   REMARKS
*CAL POLY SLO    N/A     64  61  88 W3G9        N/A
*LOMPOC        CLOUDY    63  57  82 W6        30.01R
*PISMO BEACH     N/A     65  62  88 E1        30.00R
*SANTA YNEZ    FAIR      66  55  68 SW5       30.00R

$$

CAZ037-038-051-010500-
SAN LUIS OBISPO COUNTY INTERIOR AND CUYAMA VALLEY


CITY           SKY/WX    TMP DP  RH WIND       PRES   REMARKS
*CUYAMA          N/A     77  55  45 W9        29.87R
PASO ROBLES    CLEAR     72  56  57 S8        29.98R

$$

CAZ032-033-061-010500-
SOUTHERN DESERTS


CITY           SKY/WX    TMP DP  RH WIND       PRES   REMARKS
BLYTHE         CLOUDY   103  53  19 S7        29.82R HX 101
IMPERIAL       PTCLDY    93  47  20 W7        29.79R
PALM SPRINGS   MOCLDY    99  53  21 NW12      29.86R HX  96
THERMAL        MOCLDY   100  53  20 N10       29.78R HX  98

$$

ELSEWHERE ACROSS THE WESTERN UNITED STATES AND MEXICO


CITY           SKY/WX    TMP DP  RH WIND       PRES   REMARKS
DENVER, CO     PTCLDY    71  50  47 S13       30.26R
GRAND CANYON,  CLOUDY    62  54  74 CALM      30.38R
HONOLULU, HI   MOSUNNY   86  70  58 NE18G28   29.93R HX  90
KAHULUI, MAUI  MOSUNNY   82  70  65 NE17G30   29.94R
LAKE TAHOE, CA CLEAR     65  46  50 CALM      30.30S
LAS VEGAS, NV  CLOUDY    96  53  23 W8        29.91R HX  93
MAMMOTH LAKES, FAIR      70  37  30 SW6       30.37S
MEXICO CITY, M CLOUDY    66  45  45 N8        30.38R
PHOENIX, AZ    LGT RAIN  82  70  66 NE10      29.95F
PORTLAND, OR   PTCLDY    86  50  28 NW9       29.92R
RENO, NV       MOCLDY    84  40  21 NW7       30.14R
SALT LAKE CITY PTCLDY    80  29  15 SE3       30.11R
SAN DIEGO, CA  MOCLDY    71  64  78 NW6       29.99R
SAN FRANCISCO, MOCLDY    64  58  80 W14       30.00S
SAN JOSE, CA   PTCLDY    65  58  78 NW13      30.00R
SEATTLE, WA    CLEAR     79  38  22 N6        29.99R
TIJUANA, MEX   PTCLDY    68  61  77 W3        30.01

$$

STATION/POSITION TIME  TEMP    WIND        PRES    VSBY  WAVE
                       AIR SEA DIR/SP/G                  HT/PER
                 (UTC) (F)     (DEG/KT/KT) (MB)    (MI)  (FT/S)
POINT ARGUELLO B NOT AVBL
WEST SANTA BARBA 0350   63 66  310/ 19/ 23 1013.5R         4/15
POINT CONCEPTION NOT AVBL
EAST SANTA BARBA 0400   66 69  240/ 12/ 16 1014.5S
SANTA MONICA BAY 0350   68 74  300/  8/ 10 1014.4R         2/15



USA.gov is the U.S. government's official web portal to all federal, state and local government web resources and services.